EW9663 Weather Reports


time (UTC)temp
C
wind
direction
speed
KPH
gust
KPH
rain 1hr
cm
rain 24hr
cm
rain mn
cm
humidity
%
barometer
mb
20190421061538 14 51 0.0 0.0 0.00 0.00 0.00 85 1014.1
20190421060054 13 36 0.0 0.0 0.00 0.00 0.00 86 1013.8
20190421054541 13 24 0.0 0.0 0.00 0.00 0.00 86 1013.7
20190421053052 13 296 0.0 0.0 0.00 0.00 0.00 86 1013.6
20190421051524 13 296 0.0 0.0 0.00 0.00 0.00 86 1013.5
20190421050045 13 196 0.0 0.0 0.00 0.00 0.00 84 1013.3
20190421044612 13 196 0.0 0.0 0.00 0.00 0.00 83 1013.3
20190421043020 13 196 0.0 0.0 0.00 0.00 0.00 82 1013.3
20190421041516 13 196 0.0 0.0 0.00 0.00 0.00 81 1013.3
20190421040013 14 196 0.0 0.0 0.00 0.00 0.00 79 1013.3
20190421034508 14 196 0.0 0.0 0.00 0.00 0.00 78 1013.2
20190421033018 15 196 0.0 0.0 0.00 0.00 0.00 77 1013.1
20190421031701 15 196 0.0 0.0 0.00 0.00 0.00 76 1013.2
20190421030155 15 196 0.0 0.0 0.00 0.00 0.00 75 1013.2
20190421024659 15 196 0.0 0.0 0.00 0.00 0.00 74 1013.2
20190421023217 16 196 0.0 0.0 0.00 0.00 0.00 73 1013.1
20190421021635 16 184 0.0 0.0 0.00 0.00 0.00 72 1013.0
20190421020136 16 207 0.0 0.0 0.00 0.00 0.00 69 1013.1
20190421014702 17 217 0.0 0.0 0.00 0.00 0.00 66 1013.1
20190421013208 18 179 0.0 0.0 0.00 0.00 0.00 60 1013.0
20190421011657 19 174 0.0 0.0 0.00 0.00 0.00 53 1012.9
20190421010226 20 144 0.0 0.0 0.00 0.00 0.00 47 1012.8
20190421004639 18 98 0.0 0.0 0.00 0.00 0.00 54 1012.7
20190421003113 16 92 0.0 0.0 0.00 0.00 0.00 69 1012.7
20190421001708 15 104 0.0 0.0 0.00 0.00 0.00 86 1012.8
20190421000046 15 44 0.0 0.0 0.00 0.00 0.00 87 1012.8
20190420234556 15 44 0.0 0.0 0.00 0.00 0.00 86 1013.0
20190420233042 15 44 0.0 0.0 0.00 0.00 0.00 86 1012.9
20190420231534 15 59 0.0 0.0 0.00 0.00 0.00 86 1012.9
20190420230042 15 60 0.0 0.0 0.00 0.00 0.00 85 1012.9
20190420224545 16 60 0.0 0.0 0.00 0.00 0.00 83 1012.8
20190420223041 16 60 0.0 0.0 0.00 0.00 0.00 82 1012.8
20190420221532 16 60 0.0 0.0 0.00 0.00 0.00 83 1012.9
20190420220045 16 60 0.0 0.0 0.00 0.00 0.00 80 1012.9
20190420214559 17 60 0.0 0.0 0.00 0.00 0.00 80 1013.0
20190420213039 17 60 0.0 0.0 0.00 0.00 0.00 79 1013.0
20190420211538 17 60 0.0 0.0 0.00 0.00 0.00 77 1013.1
20190420210041 18 57 0.0 0.0 0.00 0.00 0.00 74 1013.0
20190420204522 18 327 0.0 0.0 0.00 0.00 0.00 71 1012.9
20190420203025 19 327 0.0 0.0 0.00 0.00 0.00 69 1012.9
20190420201532 20 327 0.0 0.0 0.00 0.00 0.00 65 1012.6
20190420200114 20 346 0.0 0.0 0.00 0.00 0.00 58 1012.5
20190420194528 21 355 0.0 0.0 0.00 0.03 0.00 58 1012.5
20190420193055 21 344 0.0 0.0 0.00 0.03 0.00 57 1012.5
20190420191554 21 11 0.0 0.0 0.00 0.03 0.00 57 1012.4
20190420190036 21 350 0.0 0.0 0.00 0.03 0.00 56 1012.3
20190420184525 21 24 0.0 0.0 0.00 0.03 0.00 56 1012.2
20190420183016 21 342 0.0 0.0 0.00 0.03 0.00 54 1012.2
20190420181538 21 313 0.0 0.0 0.00 0.03 0.00 55 1012.2
20190420180018 21 355 0.0 0.0 0.00 0.03 0.00 54 1012.3
20190420174520 22 335 0.0 0.0 0.00 0.03 0.00 53 1012.4
20190420171517 22 318 0.0 0.0 0.00 0.03 0.00 54 1012.5
20190420170031 22 346 0.0 0.0 0.00 0.03 0.00 51 1012.4
20190420164515 22 329 0.0 0.0 0.00 0.03 0.00 52 1012.4
20190420163014 21 313 0.0 0.0 0.00 0.03 0.00 56 1012.5
20190420161503 21 280 0.0 0.0 0.00 0.03 0.00 61 1012.7
20190420160009 20 328 0.0 0.0 0.00 0.03 0.00 69 1012.7
20190420154631 20 298 0.0 0.0 0.00 0.03 0.00 69 1012.9
20190420153211 20 318 0.0 0.0 0.00 0.03 0.00 68 1013.1
20190420151701 20 304 0.0 0.0 0.00 0.03 0.00 67 1013.3
20190420150236 21 335 0.0 0.0 0.00 0.03 0.00 61 1013.4
20190420144638 21 270 0.0 0.0 0.00 0.03 0.00 62 1013.6
20190420143145 21 301 0.0 0.0 0.00 0.03 0.00 61 1014.0
20190420141603 21 328 0.0 0.0 0.00 0.03 0.00 62 1014.0
20190420140147 21 311 0.0 0.0 0.00 0.03 0.00 60 1014.2
20190420134646 22 319 0.0 0.0 0.00 0.03 0.00 59 1014.3
20190420133159 23 286 0.0 0.0 0.00 0.03 0.00 57 1014.4
20190420131632 23 331 0.0 0.0 0.00 0.03 0.00 57 1014.5
20190420130120 23 308 0.0 0.0 0.00 0.03 0.00 54 1014.7
20190420124645 23 317 0.0 0.0 0.00 0.03 0.00 53 1014.7
20190420123102 24 317 0.0 0.0 0.00 0.03 0.00 50 1015.0
20190420121625 23 338 0.0 0.0 0.00 0.03 0.00 49 1015.2
20190420120109 23 317 0.0 0.0 0.00 0.03 0.00 48 1015.4
20190420114601 22 327 0.0 0.0 0.00 0.03 0.00 48 1015.7
20190420113027 22 292 0.0 0.0 0.00 0.03 0.00 53 1015.8
20190420111552 22 284 0.0 0.0 0.00 0.03 0.00 55 1016.1
20190420110041 22 298 0.0 0.0 0.00 0.03 0.00 55 1016.4
20190420104518 21 286 0.0 0.0 0.00 0.03 0.00 58 1016.5
20190420103027 21 263 0.0 0.0 0.00 0.03 0.00 57 1016.8
20190420101502 20 320 0.0 0.0 0.00 0.03 0.00 62 1017.1
20190420100151 20 306 0.0 0.0 0.00 0.03 0.00 63 1017.2
20190420094628 19 321 0.0 0.0 0.00 0.03 0.00 61 1017.0
20190420093137 20 335 0.0 0.0 0.00 0.03 0.00 55 1017.1
20190420091643 20 329 0.0 0.0 0.00 0.03 0.00 55 1017.3
20190420090101 20 348 0.0 0.0 0.00 0.03 0.00 50 1017.3
20190420084607 20 80 0.0 0.0 0.00 0.08 0.00 52 1017.4
20190420083115 19 82 0.0 0.0 0.00 0.08 0.00 56 1017.4
20190420081624 18 75 0.0 0.0 0.00 0.08 0.00 56 1017.5
20190420080101 18 70 0.0 0.0 0.00 0.08 0.00 58 1017.6
20190420074554 17 90 0.0 0.0 0.00 0.15 0.00 62 1017.8
20190420073101 16 34 0.0 0.0 0.00 0.15 0.00 69 1018.1
20190420071549 15 19 0.0 0.0 0.00 0.15 0.00 72 1018.1
20190420070104 14 20 0.0 0.0 0.00 0.15 0.00 74 1018.2
20190420064518 13 55 0.0 0.0 0.00 0.15 0.00 74 1018.0
20190420063016 13 141 0.0 0.0 0.00 0.15 0.00 75 1018.1